{"data":{"norad_id":64530,"epoch":"2026-05-24T23:48:14.460192Z","epoch_age_seconds":69050,"freshness":"FRESH","line1":"1 64530U 25135C   26144.99183403  .00011937  00000+0  46291-3 0  9993","line2":"2 64530  97.4591 260.9262 0003382 264.1503  95.9350 15.26273974 51394","mean_motion":15.26273974,"eccentricity":0.0003382,"inclination_deg":97.4591,"raan_deg":260.9262,"arg_perigee_deg":264.1503,"mean_anomaly_deg":95.935,"bstar":0.00046291,"rev_number":5139,"period_min":94.34741236045,"perigee_km":484.64081942473,"apogee_km":489.28437279153,"semimajor_km":6865.0995961081,"source":"CELESTRAK","updated_at":"2026-05-25T13:38:04.579896Z"}}